Terug naar catalogus

STARLINK-36583

ActiefCommunicatieSSO
NORAD 67545·PAYLOAD·🇺🇸 United States

Gelanceerd Jan 22, 2026 vanaf Vandenberg Space Force Base

Loading…

Volgende Passages (komende 24 uur)

TLE

VersSource: CelesTrak SupGP

Epoch: Sep 15, 2026, 03:08 UTC

1 67545C 26014P   26258.13104167  .00072363  00000+0  22454-2 0  2583
2 67545  97.2849 143.6143 0001632  98.4612  67.7470 15.33414408    17

Volg STARLINK-36583 in realtime met AllMySat

Download on the App Store